Year,Month,Day,Hour,Minute,Value (Times are PST for temperature in C)
2018,12,14,00,00,8.30
2018,12,14,00,01,8.30
2018,12,14,00,02,8.30
2018,12,14,00,03,8.30
2018,12,14,00,04,8.30
2018,12,14,00,05,8.40
2018,12,14,00,06,8.40
2018,12,14,00,07,8.40
2018,12,14,00,08,8.50
2018,12,14,00,09,8.60
2018,12,14,00,10,8.60
2018,12,14,00,11,8.70
2018,12,14,00,12,8.70
2018,12,14,00,13,8.70
2018,12,14,00,14,8.70
2018,12,14,00,15,8.70
2018,12,14,00,16,8.70
2018,12,14,00,17,8.70
2018,12,14,00,18,8.70
2018,12,14,00,19,8.70
2018,12,14,00,20,8.70
2018,12,14,00,21,8.70
2018,12,14,00,22,8.70
2018,12,14,00,23,8.70
2018,12,14,00,24,8.70
2018,12,14,00,25,8.70
2018,12,14,00,26,8.70
2018,12,14,00,27,8.80
2018,12,14,00,28,8.80
2018,12,14,00,29,8.80
2018,12,14,00,30,8.80
2018,12,14,00,31,8.80
2018,12,14,00,32,8.80
2018,12,14,00,33,8.70
2018,12,14,00,34,8.70
2018,12,14,00,35,8.70
2018,12,14,00,36,8.70
2018,12,14,00,37,8.60
2018,12,14,00,38,8.60
2018,12,14,00,39,8.60
2018,12,14,00,40,8.60
2018,12,14,00,41,8.60
2018,12,14,00,42,8.50
2018,12,14,00,43,8.50
2018,12,14,00,44,8.50
2018,12,14,00,45,8.40
2018,12,14,00,46,8.50
2018,12,14,00,47,8.50
2018,12,14,00,48,8.50
2018,12,14,00,49,8.40
2018,12,14,00,50,8.40
2018,12,14,00,51,8.40
2018,12,14,00,52,8.40
2018,12,14,00,53,8.40
2018,12,14,00,54,8.40
2018,12,14,00,55,8.40
2018,12,14,00,56,8.40
2018,12,14,00,57,8.40
2018,12,14,00,58,8.40
2018,12,14,00,59,8.40
2018,12,14,01,00,8.40
2018,12,14,01,01,8.40
2018,12,14,01,02,8.40
2018,12,14,01,03,8.40
2018,12,14,01,04,8.50
2018,12,14,01,05,8.50
2018,12,14,01,06,8.60
2018,12,14,01,07,8.60
2018,12,14,01,08,8.70
2018,12,14,01,09,8.70
2018,12,14,01,10,8.70
2018,12,14,01,11,8.70
2018,12,14,01,12,8.70
2018,12,14,01,13,8.70
2018,12,14,01,14,8.70
2018,12,14,01,15,8.70
2018,12,14,01,16,8.80
2018,12,14,01,17,8.80
2018,12,14,01,18,8.90
2018,12,14,01,19,9.00
2018,12,14,01,20,9.10
2018,12,14,01,21,9.10
2018,12,14,01,22,9.20
2018,12,14,01,23,9.30
2018,12,14,01,24,9.40
2018,12,14,01,25,9.50
2018,12,14,01,26,9.60
2018,12,14,01,27,9.70
2018,12,14,01,28,9.70
2018,12,14,01,29,9.80
2018,12,14,01,30,9.80
2018,12,14,01,31,9.90
2018,12,14,01,32,9.90
2018,12,14,01,33,9.90
2018,12,14,01,34,10.00
2018,12,14,01,35,10.00
2018,12,14,01,36,10.10
2018,12,14,01,37,10.10
2018,12,14,01,38,10.10
2018,12,14,01,39,10.10
2018,12,14,01,40,10.10
2018,12,14,01,41,10.10
2018,12,14,01,42,10.10
2018,12,14,01,43,10.20
2018,12,14,01,44,10.20
2018,12,14,01,45,10.20
2018,12,14,01,46,10.30
2018,12,14,01,47,10.30
2018,12,14,01,48,10.30
2018,12,14,01,49,10.30
2018,12,14,01,50,10.30
2018,12,14,01,51,10.40
2018,12,14,01,52,10.40
2018,12,14,01,53,10.40
2018,12,14,01,54,10.40
2018,12,14,01,55,10.40
2018,12,14,01,56,10.40
2018,12,14,01,57,10.40
2018,12,14,01,58,10.40
2018,12,14,01,59,10.40
2018,12,14,02,00,10.40
2018,12,14,02,01,10.40
2018,12,14,02,02,10.40
2018,12,14,02,03,10.40
2018,12,14,02,04,10.40
2018,12,14,02,05,10.40
2018,12,14,02,06,10.30
2018,12,14,02,07,10.30
2018,12,14,02,08,10.30
2018,12,14,02,09,10.30
2018,12,14,02,10,10.30
2018,12,14,02,11,10.30
2018,12,14,02,12,10.30
2018,12,14,02,13,10.20
2018,12,14,02,14,10.20
2018,12,14,02,15,10.20
2018,12,14,02,16,10.10
2018,12,14,02,17,10.10
2018,12,14,02,18,10.10
2018,12,14,02,19,10.00
2018,12,14,02,20,10.00
2018,12,14,02,21,9.90
2018,12,14,02,22,9.80
2018,12,14,02,23,9.80
2018,12,14,02,24,9.70
2018,12,14,02,25,9.70
2018,12,14,02,26,9.70
2018,12,14,02,27,9.60
2018,12,14,02,28,9.60
2018,12,14,02,29,9.60
2018,12,14,02,30,9.50
2018,12,14,02,31,9.50
2018,12,14,02,32,9.40
2018,12,14,02,33,9.40
2018,12,14,02,34,9.40
2018,12,14,02,35,9.40
2018,12,14,02,36,9.30
2018,12,14,02,37,9.30
2018,12,14,02,38,9.30
2018,12,14,02,39,9.30
2018,12,14,02,40,9.20
2018,12,14,02,41,9.20
2018,12,14,02,42,9.20
2018,12,14,02,43,9.20
2018,12,14,02,44,9.10
2018,12,14,02,45,9.10
2018,12,14,02,46,9.10
2018,12,14,02,47,9.10
2018,12,14,02,48,9.10
2018,12,14,02,49,9.00
2018,12,14,02,50,9.00
2018,12,14,02,51,9.00
2018,12,14,02,52,9.00
2018,12,14,02,53,8.90
2018,12,14,02,54,8.90
2018,12,14,02,55,8.80
2018,12,14,02,56,8.80
2018,12,14,02,57,8.80
2018,12,14,02,58,8.70
2018,12,14,02,59,8.70
2018,12,14,03,00,8.70
2018,12,14,03,01,8.70
2018,12,14,03,02,8.60
2018,12,14,03,03,8.60
2018,12,14,03,04,8.60
2018,12,14,03,05,8.60
2018,12,14,03,06,8.60
2018,12,14,03,07,8.60
2018,12,14,03,08,8.60
2018,12,14,03,09,8.60
2018,12,14,03,10,8.60
2018,12,14,03,11,8.60
2018,12,14,03,12,8.60
2018,12,14,03,13,8.60
2018,12,14,03,14,8.60
2018,12,14,03,15,8.60
2018,12,14,03,16,8.60
2018,12,14,03,17,8.60
2018,12,14,03,18,8.60
2018,12,14,03,19,8.60
2018,12,14,03,20,8.60
2018,12,14,03,21,8.60
2018,12,14,03,22,8.60
2018,12,14,03,23,8.60
2018,12,14,03,24,8.60
2018,12,14,03,25,8.70
2018,12,14,03,26,8.90
2018,12,14,03,27,9.10
2018,12,14,03,28,9.30
2018,12,14,03,29,9.50
2018,12,14,03,30,9.70
2018,12,14,03,31,9.90
2018,12,14,03,32,10.00
2018,12,14,03,33,10.10
2018,12,14,03,34,10.20
2018,12,14,03,35,10.30
2018,12,14,03,36,10.30
2018,12,14,03,37,10.30
2018,12,14,03,38,10.40
2018,12,14,03,39,10.40
2018,12,14,03,40,10.40
2018,12,14,03,41,10.50
2018,12,14,03,42,10.50
2018,12,14,03,43,10.50
2018,12,14,03,44,10.50
2018,12,14,03,45,10.50
2018,12,14,03,46,10.40
2018,12,14,03,47,10.40
2018,12,14,03,48,10.40
2018,12,14,03,49,10.40
2018,12,14,03,50,10.40
2018,12,14,03,51,10.40
2018,12,14,03,52,10.30
2018,12,14,03,53,10.30
2018,12,14,03,54,10.30
2018,12,14,03,55,10.30
2018,12,14,03,56,10.30
2018,12,14,03,57,10.30
2018,12,14,03,58,10.30
2018,12,14,03,59,10.30
2018,12,14,04,00,10.30
2018,12,14,04,01,10.30
2018,12,14,04,02,10.30
2018,12,14,04,03,10.30
2018,12,14,04,04,10.20
2018,12,14,04,05,10.20
2018,12,14,04,06,10.20
2018,12,14,04,07,10.30
2018,12,14,04,08,10.30
2018,12,14,04,09,10.30
2018,12,14,04,10,10.30
2018,12,14,04,11,10.30
2018,12,14,04,12,10.30
2018,12,14,04,13,10.30
2018,12,14,04,14,10.30
2018,12,14,04,15,10.30
2018,12,14,04,16,10.30
2018,12,14,04,17,10.30
2018,12,14,04,18,10.30
2018,12,14,04,19,10.30
2018,12,14,04,20,10.30
2018,12,14,04,21,10.30
2018,12,14,04,22,10.30
2018,12,14,04,23,10.30
2018,12,14,04,24,10.20
2018,12,14,04,25,10.20
2018,12,14,04,26,10.20
2018,12,14,04,27,10.20
2018,12,14,04,28,10.20
2018,12,14,04,29,10.10
2018,12,14,04,30,10.10
2018,12,14,04,31,10.10
2018,12,14,04,32,10.00
2018,12,14,04,33,10.00
2018,12,14,04,34,10.00
2018,12,14,04,35,10.00
2018,12,14,04,36,9.90
2018,12,14,04,37,9.90
2018,12,14,04,38,9.90
2018,12,14,04,39,9.90
2018,12,14,04,40,10.00
2018,12,14,04,41,10.20
2018,12,14,04,42,10.30
2018,12,14,04,43,10.40
2018,12,14,04,44,10.50
2018,12,14,04,45,10.60
2018,12,14,04,46,10.60
2018,12,14,04,47,10.70
2018,12,14,04,48,10.70
2018,12,14,04,49,10.80
2018,12,14,04,50,10.80
2018,12,14,04,51,10.90
2018,12,14,04,52,10.90
2018,12,14,04,53,10.90
2018,12,14,04,54,11.00
2018,12,14,04,55,11.00
2018,12,14,04,56,11.00
2018,12,14,04,57,11.00
2018,12,14,04,58,10.90
2018,12,14,04,59,11.00
2018,12,14,05,00,11.10
2018,12,14,05,01,11.10
2018,12,14,05,02,11.20
2018,12,14,05,03,11.30
2018,12,14,05,04,11.40
2018,12,14,05,05,11.50
2018,12,14,05,06,11.60
2018,12,14,05,07,11.60
2018,12,14,05,08,11.70
2018,12,14,05,09,11.70
2018,12,14,05,10,11.80
2018,12,14,05,11,11.80
2018,12,14,05,12,11.70
2018,12,14,05,13,11.80
2018,12,14,05,14,11.80
2018,12,14,05,15,11.80
2018,12,14,05,16,11.80
2018,12,14,05,17,11.70
2018,12,14,05,18,11.70
2018,12,14,05,19,11.70
2018,12,14,05,20,11.60
2018,12,14,05,21,11.60
2018,12,14,05,22,11.60
2018,12,14,05,23,11.60
2018,12,14,05,24,11.60
2018,12,14,05,25,11.70
2018,12,14,05,26,11.70
2018,12,14,05,27,11.70
2018,12,14,05,28,11.80
2018,12,14,05,29,11.80
2018,12,14,05,30,11.80
2018,12,14,05,31,11.80
2018,12,14,05,32,11.80
2018,12,14,05,33,11.80
2018,12,14,05,34,11.90
2018,12,14,05,35,12.00
2018,12,14,05,36,12.00
2018,12,14,05,37,12.00
2018,12,14,05,38,12.00
2018,12,14,05,39,12.00
2018,12,14,05,40,12.00
2018,12,14,05,41,12.00
2018,12,14,05,42,12.00
2018,12,14,05,43,12.00
2018,12,14,05,44,12.10
2018,12,14,05,45,12.10
2018,12,14,05,46,12.10
2018,12,14,05,47,12.20
2018,12,14,05,48,12.20
2018,12,14,05,49,12.30
2018,12,14,05,50,12.30
2018,12,14,05,51,12.40
2018,12,14,05,52,12.40
2018,12,14,05,53,12.40
2018,12,14,05,54,12.40
2018,12,14,05,55,12.40
2018,12,14,05,56,12.40
2018,12,14,05,57,12.40
2018,12,14,05,58,12.40
2018,12,14,05,59,12.40
2018,12,14,06,00,12.40
2018,12,14,06,01,12.50
2018,12,14,06,02,12.50
2018,12,14,06,03,12.50
2018,12,14,06,04,12.50
2018,12,14,06,05,12.50
2018,12,14,06,06,12.40
2018,12,14,06,07,12.40
2018,12,14,06,08,12.40
2018,12,14,06,09,12.40
2018,12,14,06,10,12.40
2018,12,14,06,11,12.30
2018,12,14,06,12,12.30
2018,12,14,06,13,12.30
2018,12,14,06,14,12.20
2018,12,14,06,15,12.30
2018,12,14,06,16,12.30
2018,12,14,06,17,12.30
2018,12,14,06,18,12.30
2018,12,14,06,19,12.30
2018,12,14,06,20,12.30
2018,12,14,06,21,12.30
2018,12,14,06,22,12.30
2018,12,14,06,23,12.40
2018,12,14,06,24,12.40
2018,12,14,06,25,12.50
2018,12,14,06,26,12.50
2018,12,14,06,27,12.50
2018,12,14,06,28,12.50
2018,12,14,06,29,12.50
2018,12,14,06,30,12.60
2018,12,14,06,31,12.60
2018,12,14,06,32,12.50
2018,12,14,06,33,12.40
2018,12,14,06,34,12.30
2018,12,14,06,35,12.30
2018,12,14,06,36,12.20
2018,12,14,06,37,12.20
2018,12,14,06,38,12.10
2018,12,14,06,39,12.10
2018,12,14,06,40,12.10
2018,12,14,06,41,12.10
2018,12,14,06,42,12.20
2018,12,14,06,43,12.20
2018,12,14,06,44,12.30
2018,12,14,06,45,12.30
2018,12,14,06,46,12.30
2018,12,14,06,47,12.30
2018,12,14,06,48,12.30
2018,12,14,06,49,12.30
2018,12,14,06,50,12.30
2018,12,14,06,51,12.30
2018,12,14,06,52,12.20
2018,12,14,06,53,12.20
2018,12,14,06,54,12.20
2018,12,14,06,55,12.20
2018,12,14,06,56,12.10
2018,12,14,06,57,12.10
2018,12,14,06,58,12.10
2018,12,14,06,59,12.00
2018,12,14,07,00,11.90
2018,12,14,07,01,11.90
2018,12,14,07,02,12.00
2018,12,14,07,03,12.00
2018,12,14,07,04,12.20
2018,12,14,07,05,12.30
2018,12,14,07,06,12.40
2018,12,14,07,07,12.50
2018,12,14,07,08,12.50
2018,12,14,07,09,12.60
2018,12,14,07,10,12.50
2018,12,14,07,11,12.50
2018,12,14,07,12,12.40
2018,12,14,07,13,12.30
2018,12,14,07,14,12.30
2018,12,14,07,15,12.30
2018,12,14,07,16,12.30
2018,12,14,07,17,12.30
2018,12,14,07,18,12.20
2018,12,14,07,19,12.20
2018,12,14,07,20,12.20
2018,12,14,07,21,12.30
2018,12,14,07,22,12.40
2018,12,14,07,23,12.40
2018,12,14,07,24,12.50
2018,12,14,07,25,12.50
2018,12,14,07,26,12.40
2018,12,14,07,27,12.40
2018,12,14,07,28,12.30
2018,12,14,07,29,12.20
2018,12,14,07,30,12.10
2018,12,14,07,31,12.10
2018,12,14,07,32,12.10
2018,12,14,07,33,12.00
2018,12,14,07,34,12.00
2018,12,14,07,35,11.90
2018,12,14,07,36,11.90
2018,12,14,07,37,11.90
2018,12,14,07,38,11.90
2018,12,14,07,39,11.80
2018,12,14,07,40,11.70
2018,12,14,07,41,11.70
2018,12,14,07,42,11.70
2018,12,14,07,43,11.70
2018,12,14,07,44,11.60
2018,12,14,07,45,11.60
2018,12,14,07,46,11.70
2018,12,14,07,47,11.70
2018,12,14,07,48,11.70
2018,12,14,07,49,11.70
2018,12,14,07,50,11.70
2018,12,14,07,51,11.70
2018,12,14,07,52,11.60
2018,12,14,07,53,11.60
2018,12,14,07,54,11.60
2018,12,14,07,55,11.60
2018,12,14,07,56,11.60
2018,12,14,07,57,11.60
2018,12,14,07,58,11.50
2018,12,14,07,59,11.50
2018,12,14,08,00,11.50
2018,12,14,08,01,11.50
2018,12,14,08,02,11.40
2018,12,14,08,03,11.40
2018,12,14,08,04,11.40
2018,12,14,08,05,11.40
2018,12,14,08,06,11.40
2018,12,14,08,07,11.40
2018,12,14,08,08,11.40
2018,12,14,08,09,11.40
2018,12,14,08,10,11.40
2018,12,14,08,11,11.40
2018,12,14,08,12,11.40
2018,12,14,08,13,11.40
2018,12,14,08,14,11.40
2018,12,14,08,15,11.40
2018,12,14,08,16,11.40
2018,12,14,08,17,11.30
2018,12,14,08,18,11.30
2018,12,14,08,19,11.30
2018,12,14,08,20,11.30
2018,12,14,08,21,11.30
2018,12,14,08,22,11.30
2018,12,14,08,23,11.30
2018,12,14,08,24,11.30
2018,12,14,08,25,11.40
2018,12,14,08,26,11.40
2018,12,14,08,27,11.50
2018,12,14,08,28,11.50
2018,12,14,08,29,11.60
2018,12,14,08,30,11.70
2018,12,14,08,31,11.80
2018,12,14,08,32,11.80
2018,12,14,08,33,11.80
2018,12,14,08,34,11.80
2018,12,14,08,35,11.70
2018,12,14,08,36,11.70
2018,12,14,08,37,11.70
2018,12,14,08,38,11.70
2018,12,14,08,39,11.70
2018,12,14,08,40,11.60
2018,12,14,08,41,11.70
2018,12,14,08,42,11.80
2018,12,14,08,43,11.80
2018,12,14,08,44,11.80
2018,12,14,08,45,11.80
2018,12,14,08,46,11.80
2018,12,14,08,47,11.70
2018,12,14,08,48,11.70
2018,12,14,08,49,11.60
2018,12,14,08,50,11.60
2018,12,14,08,51,11.60
2018,12,14,08,52,11.50
2018,12,14,08,53,11.50
2018,12,14,08,54,11.50
2018,12,14,08,55,11.50
2018,12,14,08,56,11.50
2018,12,14,08,57,11.50
2018,12,14,08,58,11.50
2018,12,14,08,59,11.50
2018,12,14,09,00,11.50
2018,12,14,09,01,11.50
2018,12,14,09,02,11.50
2018,12,14,09,03,11.50
2018,12,14,09,04,11.50
2018,12,14,09,05,11.50
2018,12,14,09,06,11.50
2018,12,14,09,07,11.50
2018,12,14,09,08,11.50
2018,12,14,09,09,11.50
2018,12,14,09,10,11.50
2018,12,14,09,11,11.60
2018,12,14,09,12,11.60
2018,12,14,09,13,11.60
2018,12,14,09,14,11.60
2018,12,14,09,15,11.60
2018,12,14,09,16,11.60
2018,12,14,09,17,11.60
2018,12,14,09,18,11.60
2018,12,14,09,19,11.70
2018,12,14,09,20,11.70
2018,12,14,09,21,11.70
2018,12,14,09,22,11.80
2018,12,14,09,23,11.80
2018,12,14,09,24,11.80
2018,12,14,09,25,11.80
2018,12,14,09,26,11.80
2018,12,14,09,27,11.80
2018,12,14,09,28,11.80
2018,12,14,09,29,11.80
2018,12,14,09,30,11.80
2018,12,14,09,31,11.80
2018,12,14,09,32,11.90
2018,12,14,09,33,11.90
2018,12,14,09,34,12.00
2018,12,14,09,35,12.00
2018,12,14,09,36,12.00
2018,12,14,09,37,12.10
2018,12,14,09,38,12.10
2018,12,14,09,39,12.10
2018,12,14,09,40,12.10
2018,12,14,09,41,12.10
2018,12,14,09,42,12.10
2018,12,14,09,43,12.10
2018,12,14,09,44,12.10
2018,12,14,09,45,12.10
2018,12,14,09,46,12.10
2018,12,14,09,47,12.10
2018,12,14,09,48,12.10
2018,12,14,09,49,12.10
2018,12,14,09,50,12.20
2018,12,14,09,51,12.20
2018,12,14,09,52,12.30
2018,12,14,09,53,12.30
2018,12,14,09,54,12.30
2018,12,14,09,55,12.40
2018,12,14,09,56,12.40
2018,12,14,09,57,12.40
2018,12,14,09,58,12.30
2018,12,14,09,59,12.30
2018,12,14,10,00,12.30
2018,12,14,10,01,12.30
2018,12,14,10,02,12.30
2018,12,14,10,03,12.40
2018,12,14,10,04,12.40
2018,12,14,10,05,12.40
2018,12,14,10,06,12.30
2018,12,14,10,07,12.30
2018,12,14,10,08,12.40
2018,12,14,10,09,12.40
2018,12,14,10,10,12.40
2018,12,14,10,11,12.40
2018,12,14,10,12,12.30
2018,12,14,10,13,12.30
2018,12,14,10,14,12.30
2018,12,14,10,15,12.40
2018,12,14,10,16,12.40
2018,12,14,10,17,12.40
2018,12,14,10,18,12.30
2018,12,14,10,19,12.30
2018,12,14,10,20,12.30
2018,12,14,10,21,12.20
2018,12,14,10,22,12.20
2018,12,14,10,23,12.10
2018,12,14,10,24,12.10
2018,12,14,10,25,12.10
2018,12,14,10,26,12.00
2018,12,14,10,27,12.00
2018,12,14,10,28,11.90
2018,12,14,10,29,11.90
2018,12,14,10,30,11.90
2018,12,14,10,31,11.90
2018,12,14,10,32,11.90
2018,12,14,10,33,11.90
2018,12,14,10,34,11.90
2018,12,14,10,35,11.90
2018,12,14,10,36,11.90
2018,12,14,10,37,11.90
2018,12,14,10,38,11.90
2018,12,14,10,39,11.90
2018,12,14,10,40,11.90
2018,12,14,10,41,11.90
2018,12,14,10,42,12.00
2018,12,14,10,43,12.00
2018,12,14,10,44,12.00
2018,12,14,10,45,12.00
2018,12,14,10,46,12.00
2018,12,14,10,47,12.00
2018,12,14,10,48,11.90
2018,12,14,10,49,11.90
2018,12,14,10,50,11.90
2018,12,14,10,51,11.90
2018,12,14,10,52,11.90
2018,12,14,10,53,11.90
2018,12,14,10,54,11.90
2018,12,14,10,55,11.90
2018,12,14,10,56,11.90
2018,12,14,10,57,11.90
2018,12,14,10,58,12.00
2018,12,14,10,59,12.00
2018,12,14,11,00,12.00
2018,12,14,11,01,11.90
2018,12,14,11,02,11.90
2018,12,14,11,03,11.80
2018,12,14,11,04,11.80
2018,12,14,11,05,11.80
2018,12,14,11,06,11.70
2018,12,14,11,07,11.70
2018,12,14,11,08,11.70
2018,12,14,11,09,11.70
2018,12,14,11,10,11.70
2018,12,14,11,11,11.60
2018,12,14,11,12,11.60
2018,12,14,11,13,11.60
2018,12,14,11,14,11.60
2018,12,14,11,15,11.60
2018,12,14,11,16,11.50
2018,12,14,11,17,11.50
2018,12,14,11,18,11.50
2018,12,14,11,19,11.50
2018,12,14,11,20,11.50
2018,12,14,11,21,11.50
2018,12,14,11,22,11.60
2018,12,14,11,23,11.60
2018,12,14,11,24,11.60
2018,12,14,11,25,11.60
2018,12,14,11,26,11.60
2018,12,14,11,27,11.60
2018,12,14,11,28,11.70
2018,12,14,11,29,11.70
2018,12,14,11,30,11.70
2018,12,14,11,31,11.80
2018,12,14,11,32,11.80
2018,12,14,11,33,11.90
2018,12,14,11,34,11.90
2018,12,14,11,35,11.90
2018,12,14,11,36,11.90
2018,12,14,11,37,11.90
2018,12,14,11,38,11.90
2018,12,14,11,39,12.00
2018,12,14,11,40,12.00
2018,12,14,11,41,12.00
2018,12,14,11,42,12.10
2018,12,14,11,43,12.10
2018,12,14,11,44,12.10
2018,12,14,11,45,12.10
2018,12,14,11,46,12.10
2018,12,14,11,47,12.10
2018,12,14,11,48,12.10
2018,12,14,11,49,12.10
2018,12,14,11,50,12.10
2018,12,14,11,51,12.10
2018,12,14,11,52,12.10
2018,12,14,11,53,12.10
2018,12,14,11,54,12.10
2018,12,14,11,55,12.10
2018,12,14,11,56,12.10
2018,12,14,11,57,12.10
2018,12,14,11,58,12.10
2018,12,14,11,59,12.10
2018,12,14,12,00,12.10
2018,12,14,12,01,12.10
2018,12,14,12,02,12.10
2018,12,14,12,03,12.10
2018,12,14,12,04,12.10
2018,12,14,12,05,12.10
2018,12,14,12,06,12.10
2018,12,14,12,07,12.10
2018,12,14,12,08,12.10
2018,12,14,12,09,12.10
2018,12,14,12,10,12.10
2018,12,14,12,11,12.10
2018,12,14,12,12,12.10
2018,12,14,12,13,12.10
2018,12,14,12,14,12.10
2018,12,14,12,15,12.10
2018,12,14,12,16,12.10
2018,12,14,12,17,12.10
2018,12,14,12,18,12.10
2018,12,14,12,19,12.10
2018,12,14,12,20,12.10
2018,12,14,12,21,12.10
2018,12,14,12,22,12.10
2018,12,14,12,23,12.10
2018,12,14,12,24,12.10
2018,12,14,12,25,12.10
2018,12,14,12,26,12.10
2018,12,14,12,27,12.20
2018,12,14,12,28,12.20
2018,12,14,12,29,12.20
2018,12,14,12,30,12.20
2018,12,14,12,31,12.30
2018,12,14,12,32,12.40
2018,12,14,12,33,12.40
2018,12,14,12,34,12.50
2018,12,14,12,35,12.50
2018,12,14,12,36,12.50
2018,12,14,12,37,12.60
2018,12,14,12,38,12.60
2018,12,14,12,39,12.60
2018,12,14,12,40,12.60
2018,12,14,12,41,12.60
2018,12,14,12,42,12.60
2018,12,14,12,43,12.60
2018,12,14,12,44,12.60
2018,12,14,12,45,12.60
2018,12,14,12,46,12.60
2018,12,14,12,47,12.60
2018,12,14,12,48,12.60
2018,12,14,12,49,12.60
2018,12,14,12,50,12.60
2018,12,14,12,51,12.60
2018,12,14,12,52,12.70
2018,12,14,12,53,12.70
2018,12,14,12,54,12.70
2018,12,14,12,55,12.70
2018,12,14,12,56,12.70
2018,12,14,12,57,12.70
2018,12,14,12,58,12.80
2018,12,14,12,59,12.80
2018,12,14,13,00,12.80
2018,12,14,13,01,12.80
2018,12,14,13,02,12.80
2018,12,14,13,03,12.80
2018,12,14,13,04,12.80
2018,12,14,13,05,12.80
2018,12,14,13,06,12.80
2018,12,14,13,07,12.90
2018,12,14,13,08,12.90
2018,12,14,13,09,12.90
2018,12,14,13,10,12.80
2018,12,14,13,11,12.80
2018,12,14,13,12,12.80
2018,12,14,13,13,12.80
2018,12,14,13,14,12.80
2018,12,14,13,15,12.80
2018,12,14,13,16,12.80
2018,12,14,13,17,12.80
2018,12,14,13,18,12.80
2018,12,14,13,19,12.80
2018,12,14,13,20,12.90
2018,12,14,13,21,12.90
2018,12,14,13,22,12.90
2018,12,14,13,23,12.90
2018,12,14,13,24,12.90
2018,12,14,13,25,12.90
2018,12,14,13,26,12.80
2018,12,14,13,27,12.80
2018,12,14,13,28,12.80
2018,12,14,13,29,12.80
2018,12,14,13,30,12.80
2018,12,14,13,31,12.70
2018,12,14,13,32,12.70
2018,12,14,13,33,12.60
2018,12,14,13,34,12.60
2018,12,14,13,35,12.50
2018,12,14,13,36,12.50
2018,12,14,13,37,12.40
2018,12,14,13,38,12.40
2018,12,14,13,39,12.40
2018,12,14,13,40,12.30
2018,12,14,13,41,12.30
2018,12,14,13,42,12.30
2018,12,14,13,43,12.20
2018,12,14,13,44,12.20
2018,12,14,13,45,12.20
2018,12,14,13,46,12.20
2018,12,14,13,47,12.20
2018,12,14,13,48,12.20
2018,12,14,13,49,12.20
2018,12,14,13,50,12.10
2018,12,14,13,51,12.10
2018,12,14,13,52,12.10
2018,12,14,13,53,12.10
2018,12,14,13,54,12.10
2018,12,14,13,55,12.10
2018,12,14,13,56,12.10
2018,12,14,13,57,12.10
2018,12,14,13,58,12.10
2018,12,14,13,59,12.10
2018,12,14,14,00,12.10
2018,12,14,14,01,12.10
2018,12,14,14,02,12.20
2018,12,14,14,03,12.20
2018,12,14,14,04,12.20
2018,12,14,14,05,12.20
2018,12,14,14,06,12.20
2018,12,14,14,07,12.20
2018,12,14,14,08,12.10
2018,12,14,14,09,12.10
2018,12,14,14,10,12.10
2018,12,14,14,11,12.10
2018,12,14,14,12,12.10
2018,12,14,14,13,12.10
2018,12,14,14,14,12.10
2018,12,14,14,15,12.10
2018,12,14,14,16,12.10
2018,12,14,14,17,12.10
2018,12,14,14,18,12.00
2018,12,14,14,19,12.00
2018,12,14,14,20,12.00
2018,12,14,14,21,11.90
2018,12,14,14,22,11.90
2018,12,14,14,23,11.90
2018,12,14,14,24,12.00
2018,12,14,14,25,12.00
2018,12,14,14,26,12.00
2018,12,14,14,27,12.10
2018,12,14,14,28,12.20
2018,12,14,14,29,12.30
2018,12,14,14,30,12.40
2018,12,14,14,31,12.50
2018,12,14,14,32,12.60
2018,12,14,14,33,12.70
2018,12,14,14,34,12.80
2018,12,14,14,35,12.90
2018,12,14,14,36,13.00
2018,12,14,14,37,13.10
2018,12,14,14,38,13.20
2018,12,14,14,39,13.30
2018,12,14,14,40,13.40
2018,12,14,14,41,13.50
2018,12,14,14,42,13.50
2018,12,14,14,43,13.60
2018,12,14,14,44,13.70
2018,12,14,14,45,13.80
2018,12,14,14,46,13.80
2018,12,14,14,47,13.80
2018,12,14,14,48,13.80
2018,12,14,14,49,13.80
2018,12,14,14,50,13.70
2018,12,14,14,51,13.70
2018,12,14,14,52,13.70
2018,12,14,14,53,13.70
2018,12,14,14,54,13.70
2018,12,14,14,55,13.70
2018,12,14,14,56,13.70
2018,12,14,14,57,13.70
2018,12,14,14,58,13.70
2018,12,14,14,59,13.70
2018,12,14,15,00,13.70
2018,12,14,15,01,13.70
2018,12,14,15,02,13.70
2018,12,14,15,03,13.70
2018,12,14,15,04,13.70
2018,12,14,15,05,13.70
2018,12,14,15,06,13.70
2018,12,14,15,07,13.70
2018,12,14,15,08,13.70
2018,12,14,15,09,13.80
2018,12,14,15,10,13.80
2018,12,14,15,11,13.80
2018,12,14,15,12,13.80
2018,12,14,15,13,13.90
2018,12,14,15,14,13.90
2018,12,14,15,15,13.90
2018,12,14,15,16,13.90
2018,12,14,15,17,13.90
2018,12,14,15,18,13.90
2018,12,14,15,19,13.90
2018,12,14,15,20,13.90
2018,12,14,15,21,13.90
2018,12,14,15,22,13.90
2018,12,14,15,23,13.80
2018,12,14,15,24,13.80
2018,12,14,15,25,13.80
2018,12,14,15,26,13.80
2018,12,14,15,27,13.80
2018,12,14,15,28,13.80
2018,12,14,15,29,13.80
2018,12,14,15,30,13.80
2018,12,14,15,31,13.80
2018,12,14,15,32,13.80
2018,12,14,15,33,13.80
2018,12,14,15,34,13.80
2018,12,14,15,35,13.80
2018,12,14,15,36,13.80
2018,12,14,15,37,13.80
2018,12,14,15,38,13.80
2018,12,14,15,39,13.80
2018,12,14,15,40,13.80
2018,12,14,15,41,13.80
2018,12,14,15,42,13.80
2018,12,14,15,43,13.80
2018,12,14,15,44,13.80
2018,12,14,15,45,13.70
2018,12,14,15,46,13.70
2018,12,14,15,47,13.70
2018,12,14,15,48,13.60
2018,12,14,15,49,13.60
2018,12,14,15,50,13.60
2018,12,14,15,51,13.60
2018,12,14,15,52,13.60
2018,12,14,15,53,13.60
2018,12,14,15,54,13.60
2018,12,14,15,55,13.60
2018,12,14,15,56,13.60
2018,12,14,15,57,13.60
2018,12,14,15,58,13.60
2018,12,14,15,59,13.50
2018,12,14,16,00,13.50
2018,12,14,16,01,13.50
2018,12,14,16,02,13.40
2018,12,14,16,03,13.40
2018,12,14,16,04,13.30
2018,12,14,16,05,13.30
2018,12,14,16,06,13.30
2018,12,14,16,07,13.20
2018,12,14,16,08,13.20
2018,12,14,16,09,13.20
2018,12,14,16,10,13.20
2018,12,14,16,11,13.10
2018,12,14,16,12,13.10
2018,12,14,16,13,13.10
2018,12,14,16,14,13.00
2018,12,14,16,15,13.00
2018,12,14,16,16,12.90
2018,12,14,16,17,12.90
2018,12,14,16,18,12.90
2018,12,14,16,19,12.90
2018,12,14,16,20,12.90
2018,12,14,16,21,12.90
2018,12,14,16,22,12.90
2018,12,14,16,23,12.90
2018,12,14,16,24,12.90
2018,12,14,16,25,12.90
2018,12,14,16,26,13.00
2018,12,14,16,27,13.00
2018,12,14,16,28,13.00
2018,12,14,16,29,13.00
2018,12,14,16,30,13.00
2018,12,14,16,31,13.00
2018,12,14,16,32,13.00
2018,12,14,16,33,13.00
2018,12,14,16,34,13.00
2018,12,14,16,35,13.00
2018,12,14,16,36,12.90
2018,12,14,16,37,12.90
2018,12,14,16,38,12.90
2018,12,14,16,39,12.90
2018,12,14,16,40,12.80
2018,12,14,16,41,12.80
2018,12,14,16,42,12.80
2018,12,14,16,43,12.80
2018,12,14,16,44,12.80
2018,12,14,16,45,12.70
2018,12,14,16,46,12.70
2018,12,14,16,47,12.70
2018,12,14,16,48,12.70
2018,12,14,16,49,12.70
2018,12,14,16,50,12.60
2018,12,14,16,51,12.60
2018,12,14,16,52,12.60
2018,12,14,16,53,12.60
2018,12,14,16,54,12.50
2018,12,14,16,55,12.50
2018,12,14,16,56,12.50
2018,12,14,16,57,12.50
2018,12,14,16,58,12.40
2018,12,14,16,59,12.40
2018,12,14,17,00,12.40
2018,12,14,17,01,12.40
2018,12,14,17,02,12.30
2018,12,14,17,03,12.30
2018,12,14,17,04,12.30
2018,12,14,17,05,12.30
2018,12,14,17,06,12.30
2018,12,14,17,07,12.30
2018,12,14,17,08,12.30
2018,12,14,17,09,12.30
2018,12,14,17,10,12.30
2018,12,14,17,11,12.40
2018,12,14,17,12,12.40
2018,12,14,17,13,12.40
2018,12,14,17,14,12.40
2018,12,14,17,15,12.40
2018,12,14,17,16,12.40
2018,12,14,17,17,12.40
2018,12,14,17,18,12.30
2018,12,14,17,19,12.30
2018,12,14,17,20,12.30
2018,12,14,17,21,12.30
2018,12,14,17,22,12.20
2018,12,14,17,23,12.20
2018,12,14,17,24,12.20
2018,12,14,17,25,12.20
2018,12,14,17,26,12.10